Hauptseite
METAR-TAF:

METAR-TAF

Flughäfen :

RNAS Yeovilton

Yeovilton, England

Breite: 51-00N, Länge: 002-38W, Höhe: 23 m

Beobachtung

Neuester Wetterbericht von vor 1 Stunde und 10 Minuten, um 00:50 UTC
Wind 5 kt aus West/Südwest
Temperatur 9°C
Luftfeuchtigkeit 93%
Luftdruck 1005 hPa
Sichtweite 10 km oder mehr

METAR: EGDY 070050Z AUTO 24005KT 9999 SCT220/// 09/08 Q1005

Zeit: 03:00 (02:00 UTC)


TAF: fehlend

Wetterbeobachtungen und Prognosen von mehr als 4000 Flughäfen (METAR und TAF Bericht).

Die verfügbaren Stationen werden durch gelbe und rote Markierungen auf der Karte dargestellt.

Führen Sie die Maus auf sie, um den Namen der Station zu sehen.

Darauf klicken, um die Beobachtung von Wetterbeobachtungen und Prognosen zu sehen.

Um die Karte zu ändern : klicken Sie auf den grünen Tasten mit einem schwarzen Kreuz Zum Vergrößern, auf den grünen Button mit einem Gedankenstrich zu verkleinern, oder auf die grünen Pfeile für benachbarte Karten.


METAR-TAF: